Content
SEND FEEDBACK

Daily
Averages
Monthly
Summary
United Kingdom

YORK, ENGLAND


Home > Europe > United Kingdom > England
Elevation: 27 feet     Latitude: 53 50N     Longitude: 001 11W

WEATHER
 
SELECT A DAY
Number of Records: 48,838;   Date Range: 6/27/01 - 12/19/13
 
SHARE

PRINT THIS DATA

[ ← Previous Day ]
WEATHER ALMANAC - FEBRUARY 11, 2013
[ Next Day → ]
[ °C ]   °F
Weather ElementAverageHighLow
Temperature36 °F37.4 °F (9:50 am)33.8 °F (1:50 am)
Dewpoint28.8 °F32 °F (1:50 am)24.8 °F (3:50 pm)
Humidity73.6 %93 % (1:50 am)54 % (2:50 pm)
Barometer29.66 in29.90 in (11:50 pm)29.44 in (1:50 am)
Wind Speed12.2 mph19.6 mph (10:50 am)
Weather ElementAverage
Visibility7.2 mi
Wind DirectionENE (80.7 °)

Weather ElementTotal
Precipitation---
Heating Degree Days29.4 (Base 65)
Averaged from 30 records on February 11, 2013
WEATHER CONDITIONS BREAKOUT
WIND DIRECTION BREAKOUT
WEATHER BY HOUR - FEBRUARY 11, 2013
[ °C ]   °F
Local TimeTemperatureDewpointHumidityBarometerVisibilityWind DirectionWind SpeedGust SpeedPrecipitationEventsConditions
1:50 AM33.8 °F32.0 °F93 %29.44 in6.2 miEast (100°)9.2 mphMostly Cloudy
2:50 AM35.0 °F30.0 °F77 %29.48 in9.0 miESE (110°)15.0 mphPartly Cloudy
2:50 AM35.6 °F30.2 °F81 %29.47 in6.2 miESE (110°)15.0 mphMostly Cloudy
3:50 AM35.6 °F30.2 °F81 %29.47 in6.2 miESE (110°)12.7 mphMostly Cloudy
4:50 AM35.6 °F30.2 °F81 %29.50 in6.2 miEast (100°)13.8 mphMostly Cloudy
5:50 AM35.0 °F30.0 °F74 %29.53 in7.0 miEast (90°)13.8 mph
5:50 AM35.6 °F30.2 °F81 %29.50 in6.2 miEast (90°)13.8 mphMostly Cloudy
6:50 AM35.6 °F30.2 °F81 %29.53 in6.2 miEast (80°)12.7 mphMostly Cloudy
7:50 AM35.6 °F30.2 °F81 %29.56 in6.2 miEast (90°)11.5 mphMostly Cloudy
8:50 AM36.0 °F30.0 °F71 %29.60 in9.0 miENE (70°)10.4 mphPartly Cloudy
8:50 AM35.6 °F30.2 °F81 %29.59 in6.2 miENE (70°)10.4 mphScattered Clouds
9:50 AM37.4 °F30.2 °F75 %29.62 in6.2 miEast (90°)16.1 mphPartly Cloudy
10:50 AM37.4 °F26.6 °F65 %29.62 in6.2 miEast (100°)19.6 mphScattered Clouds
11:50 AM37.0 °F27.0 °F56 %29.67 in13.0 miEast (80°)19.6 mphMostly Cloudy
11:50 AM37.4 °F26.6 °F65 %29.65 in6.2 miEast (80°)19.6 mphMostly Cloudy
12:50 PM37.4 °F26.6 °F65 %29.65 in6.2 miEast (80°)16.1 mphScattered Clouds
1:50 PM37.4 °F26.6 °F65 %29.68 in6.2 miEast (80°)17.3 mphMostly Cloudy
2:50 PM37.0 °F26.0 °F54 %29.72 in13.0 miEast (80°)13.8 mphMostly Cloudy
2:50 PM37.4 °F26.6 °F65 %29.71 in6.2 miEast (80°)13.8 mphMostly Cloudy
3:50 PM37.4 °F24.8 °F60 %29.71 in6.2 miENE (70°)15.0 mphOvercast
4:50 PM35.6 °F28.4 °F75 %29.74 in6.2 miEast (80°)12.7 mphMostly Cloudy
5:50 PM35.0 °F28.0 °F68 %29.78 in12.0 miEast (80°)11.5 mphOvercast
5:50 PM35.6 °F28.4 °F75 %29.77 in6.2 miEast (80°)11.5 mphOvercast
6:50 PM35.6 °F28.4 °F75 %29.77 in6.2 miENE (60°)5.8 mphOvercast
7:50 PM35.6 °F30.2 °F81 %29.80 in6.2 miENE (60°)6.9 mphOvercast
8:50 PM35.0 °F29.0 °F71 %29.83 in10.0 miENE (70°)5.8 mphOvercast
8:50 PM35.6 °F28.4 °F75 %29.83 in6.2 miENE (70°)5.8 mphOvercast
10:50 PM35.6 °F30.2 °F81 %29.86 in6.2 miENE (60°)4.6 mphOvercast
11:50 PM35.0 °F29.0 °F73 %29.90 in7.0 miNE (50°)5.8 mphMostly Cloudy
11:50 PM35.6 °F30.2 °F81 %29.89 in6.2 miNE (50°)5.8 mphMostly Cloudy
Hourly data recorded from EGXG, located miles away from York, England







STORIES FROM OUR PARTNERS